Sigfox identifier Datetime Temperature Humidity SNR
002EEB90 2019-04-23 14:56:48 16.2 32 23.6
002EEB90 2019-04-23 14:23:00 16 32 23.5
002EEB90 2019-04-23 13:49:13 16 32 23.4
002EEB90 2019-04-23 13:15:26 16 32 23.2
002EEB90 2019-04-23 12:41:38 15.8 32 23.2
002EEB90 2019-04-23 12:07:50 15.7 32 23.3
002EEB90 2019-04-23 11:34:02 15.6 31 23
002EEB90 2019-04-23 11:00:13 15.5 31 22.9
002EEB90 2019-04-23 10:26:26 15.5 31 22.9
002EEB90 2019-04-23 09:52:35 15.4 31 22.6
002EEB90 2019-04-23 09:18:46 15.4 31 22.4
002EEB90 2019-04-23 08:44:57 15.4 31 22.3
002EEB90 2019-04-23 08:11:08 15.4 31 22.2
002EEB90 2019-04-23 07:37:18 15.3 31 22.2
002EEB90 2019-04-23 07:03:31 15.4 31 22.2
002EEB90 2019-04-23 06:29:43 15.3 31 22.1
002EEB90 2019-04-23 05:55:55 15.3 31 22.2
002EEB90 2019-04-23 05:22:08 15.3 31 22.2
002EEB90 2019-04-23 04:48:20 15.3 31 22.2
002EEB90 2019-04-23 04:14:32 15.3 31 22.4
002EEB90 2019-04-23 03:40:44 15.3 31 22.5
002EEB90 2019-04-23 03:06:57 15.4 31 22.6
002EEB90 2019-04-23 02:33:09 15.3 31 22.6
002EEB90 2019-04-23 01:59:20 15.4 31 22.5
002EEB90 2019-04-23 01:25:31 15.3 31 22.5
002EEB90 2019-04-23 00:51:43 15.3 31 22.6
002EEB90 2019-04-23 00:17:54 15.4 31 22.6
002EEB90 2019-04-22 23:44:06 15.5 31 22.7
002EEB90 2019-04-22 23:10:18 15.5 31 22.8
002EEB90 2019-04-22 22:36:31 15.5 31 22.8
002EEB90 2019-04-22 22:02:42 15.6 31 22.9
002EEB90 2019-04-22 21:28:54 15.6 31 23
002EEB90 2019-04-22 20:55:07 15.6 31 23.1
002EEB90 2019-04-22 20:21:18 15.6 31 23.2
002EEB90 2019-04-22 19:47:29 15.7 31 23.3
002EEB90 2019-04-22 19:13:40 15.7 31 23.4
002EEB90 2019-04-22 18:39:50 15.7 31 23.2
002EEB90 2019-04-22 18:06:03 15.8 31 23.2
002EEB90 2019-04-22 17:32:15 15.8 31 23.3
002EEB90 2019-04-22 16:58:26 15.8 31 23.3
002EEB90 2019-04-22 16:24:35 15.7 31 23.3
002EEB90 2019-04-22 15:50:47 15.7 31 23.3
002EEB90 2019-04-22 15:16:59 15.6 31 23.3
002EEB90 2019-04-22 14:43:10 15.6 31 23.4
002EEB90 2019-04-22 14:09:23 15.6 31 23.4
002EEB90 2019-04-22 13:35:34 15.6 31 23.3
002EEB90 2019-04-22 13:01:46 15.6 31 23.2
002EEB90 2019-04-22 12:27:58 15.5 30 23.2
002EEB90 2019-04-22 11:54:12 15.5 30 23.3
002EEB90 2019-04-22 11:20:26 15.5 30 23.3
002EEB90 2019-04-22 10:46:39 15.5 31 23.3
002EEB90 2019-04-22 10:12:54 15.4 31 23.4
002EEB90 2019-04-22 09:39:08 15.3 30 23.4
002EEB90 2019-04-22 09:05:20 15.3 30 23.4
002EEB90 2019-04-22 08:31:32 15.3 30 23.2
002EEB90 2019-04-22 07:57:43 15.3 30 23
002EEB90 2019-04-22 07:23:54 15.3 30 22.9
002EEB90 2019-04-22 06:50:05 15.3 30 22.8
002EEB90 2019-04-22 06:16:16 15.3 30 22.7
002EEB90 2019-04-22 05:42:29 15.4 30 22.5
002EEB90 2019-04-22 05:08:40 15.3 30 22.9
002EEB90 2019-04-22 04:34:53 15.3 30 22.9
002EEB90 2019-04-22 04:01:06 15.3 30 22.9
002EEB90 2019-04-22 03:27:20 15.3 30 22.9
002EEB90 2019-04-22 02:53:33 15.3 30 23
002EEB90 2019-04-22 02:19:45 15.3 30 23
002EEB90 2019-04-22 01:45:58 15.3 30 23
002EEB90 2019-04-22 01:12:10 15.3 30 23.1
002EEB90 2019-04-22 00:38:22 15.3 30 23.1
002EEB90 2019-04-22 00:04:34 15.3 30 23
002EEB90 2019-04-21 23:30:46 15.3 30 23.1
002EEB90 2019-04-21 22:56:57 15.3 30 23.1
002EEB90 2019-04-21 22:23:09 15.3 30 23
002EEB90 2019-04-21 21:49:22 15.3 30 22.9
002EEB90 2019-04-21 21:15:34 15.3 30 22.8
002EEB90 2019-04-21 20:41:47 15.3 30 22.7
002EEB90 2019-04-21 20:08:00 15.3 30 22.7
002EEB90 2019-04-21 19:34:12 15.3 30 22.8
002EEB90 2019-04-21 19:00:25 15.3 30 22.9
002EEB90 2019-04-21 18:26:37 15.3 30 22.9
002EEB90 2019-04-21 17:52:49 15.3 30 23
002EEB90 2019-04-21 17:19:01 15.3 30 22.9
002EEB90 2019-04-21 16:45:13 15.1 30 22.9
002EEB90 2019-04-21 16:11:25 15.2 30 23.1
002EEB90 2019-04-21 15:37:38 15.2 30 22.9
002EEB90 2019-04-21 15:03:50 15.2 30 22.9
002EEB90 2019-04-21 14:30:05 15.2 29 22.8
002EEB90 2019-04-21 13:56:17 15.1 29 22.8
002EEB90 2019-04-21 13:22:30 15.1 29 22.7
002EEB90 2019-04-21 12:48:43 15.1 29 22.6
002EEB90 2019-04-21 12:14:55 15.1 29 22.6
002EEB90 2019-04-21 11:41:07 15.1 29 22.7
002EEB90 2019-04-21 11:07:19 15.1 29 22.6
002EEB90 2019-04-21 10:33:33 15.2 29 22.5
002EEB90 2019-04-21 09:59:45 15.2 29 22.6
002EEB90 2019-04-21 09:25:57 15.3 29 22.5
002EEB90 2019-04-21 08:52:11 15.3 29 22.5
002EEB90 2019-04-21 08:18:22 15.3 29 22.6
002EEB90 2019-04-21 07:44:35 15.3 29 22.8
002EEB90 2019-04-21 07:10:47 15.3 29 22.8
002EEB90 2019-04-21 06:37:00 15.3 29 22.9
002EEB90 2019-04-21 06:03:12 15.4 29 22.9
002EEB90 2019-04-21 05:29:24 15.3 29 23
002EEB90 2019-04-21 04:55:35 15.3 29 23.8
002EEB90 2019-04-21 04:21:46 15.3 29 23.7
002EEB90 2019-04-21 03:47:57 15.3 29 23.7
002EEB90 2019-04-21 03:14:10 15.3 29 23.7
002EEB90 2019-04-21 02:40:23 15.3 29 23.7
002EEB90 2019-04-21 02:06:35 15.3 29 23.7
002EEB90 2019-04-21 01:32:46 15.3 29 23.7
002EEB90 2019-04-21 00:58:59 15.3 29 23.7
002EEB90 2019-04-21 00:25:11 15.3 29 23.7
002EEB90 2019-04-20 23:51:23 15.3 29 23.8
002EEB90 2019-04-20 23:17:34 15.3 29 23.8
002EEB90 2019-04-20 22:43:46 15.3 29 23.7
002EEB90 2019-04-20 22:09:59 15.3 29 23.7
002EEB90 2019-04-20 21:36:10 15.3 29 23.6
002EEB90 2019-04-20 21:02:24 15.3 29 23.4
002EEB90 2019-04-20 20:28:35 15.3 29 23.4
002EEB90 2019-04-20 19:54:44 15.3 29 23.4
002EEB90 2019-04-20 19:20:56 15.3 29 23.4
002EEB90 2019-04-20 18:47:07 15.3 29 23.4
002EEB90 2019-04-20 18:13:19 15.3 29 23.4
002EEB90 2019-04-20 17:39:32 15.3 29 24
002EEB90 2019-04-20 17:05:44 15.3 28 24
002EEB90 2019-04-20 16:31:56 15.3 28 23.9
002EEB90 2019-04-20 15:58:06 15.4 28 23.7
002EEB90 2019-04-20 15:24:18 15.3 29 23.1
002EEB90 2019-04-20 14:50:32 15.3 28 22.9
002EEB90 2019-04-20 14:16:44 15.3 28 23
002EEB90 2019-04-20 13:42:57 15.3 28 23
002EEB90 2019-04-20 13:09:08 15.3 28 23
002EEB90 2019-04-20 12:35:18 15.3 28 23
002EEB90 2019-04-20 12:01:30 15.3 28 23
002EEB90 2019-04-20 11:27:41 15.3 28 22.9
002EEB90 2019-04-20 10:53:52 15.3 28 22.8
002EEB90 2019-04-20 10:20:03 15.3 28 22.8
002EEB90 2019-04-20 09:46:15 15.3 28 23.5
002EEB90 2019-04-20 09:12:28 15.3 28 23.4
002EEB90 2019-04-20 08:38:39 15.3 28 23.4
002EEB90 2019-04-20 08:04:51 15.3 28 23.5
002EEB90 2019-04-20 07:31:03 15.5 28 23.6
002EEB90 2019-04-20 06:57:17 15.6 28 23.7
002EEB90 2019-04-20 06:23:29 15.3 28 23.7
002EEB90 2019-04-20 05:49:41 15.5 28 23.7
002EEB90 2019-04-20 05:15:53 15.6 28 23.7
002EEB90 2019-04-20 04:42:05 15.3 28 23.6
002EEB90 2019-04-20 04:08:17 15.5 28 22.8
002EEB90 2019-04-20 03:34:30 15.5 28 22.8
002EEB90 2019-04-20 03:00:42 15.6 28 23
002EEB90 2019-04-20 02:26:53 15.6 28 23
002EEB90 2019-04-20 01:53:05 15.6 28 23.2
002EEB90 2019-04-20 01:19:15 15.6 28 23.1
002EEB90 2019-04-20 00:45:28 15.7 28 23.2
002EEB90 2019-04-20 00:11:39 15.8 28 23.2
002EEB90 2019-04-19 23:37:50 15.8 28 23.2
002EEB90 2019-04-19 23:04:03 15.8 28 23.2
002EEB90 2019-04-19 22:30:15 15.8 28 23.3
002EEB90 2019-04-19 21:56:28 15.8 27 23.4
002EEB90 2019-04-19 21:22:42 15.9 27 23.4
002EEB90 2019-04-19 20:48:53 16 27 22.7
002EEB90 2019-04-19 20:15:06 16 27 22.7
002EEB90 2019-04-19 19:41:19 16 27 22.9
002EEB90 2019-04-19 19:07:31 16 27 22.9
002EEB90 2019-04-19 18:33:44 16 27 22.9
002EEB90 2019-04-19 17:59:57 16 27 22.9
002EEB90 2019-04-19 17:26:09 16 27 22.9
002EEB90 2019-04-19 16:52:21 16 27 23
002EEB90 2019-04-19 16:18:34 16 27 23
002EEB90 2019-04-19 15:44:47 15.9 27 23.1
002EEB90 2019-04-19 15:11:00 15.9 27 23.2
002EEB90 2019-04-19 14:37:13 15.8 27 23.2
002EEB90 2019-04-19 14:03:26 15.8 27 23.3
002EEB90 2019-04-19 13:29:39 15.8 27 23.2
002EEB90 2019-04-19 12:55:52 15.8 27 23.4
002EEB90 2019-04-19 12:22:06 15.7 27 23.3
002EEB90 2019-04-19 11:48:18 15.7 27 23.3
002EEB90 2019-04-19 11:14:31 15.6 27 23.4
002EEB90 2019-04-19 10:40:43 15.6 27 23.4
002EEB90 2019-04-19 10:06:56 15.6 27 23.4
002EEB90 2019-04-19 09:33:07 15.6 27 23.4
002EEB90 2019-04-19 08:59:21 15.6 27 23.4
002EEB90 2019-04-19 08:25:34 15.6 27 23.5
002EEB90 2019-04-19 07:51:46 15.6 27 23.5
002EEB90 2019-04-19 07:17:59 15.6 27 23.6
002EEB90 2019-04-19 06:44:11 15.6 27 23.5
002EEB90 2019-04-19 06:10:25 15.7 27 23.5
002EEB90 2019-04-19 05:36:38 15.7 27 23.6
002EEB90 2019-04-19 05:02:52 15.8 27 23.6
002EEB90 2019-04-19 04:29:07 15.6 26 23.7
002EEB90 2019-04-19 03:55:19 15.7 26 23.8
002EEB90 2019-04-19 03:21:32 15.8 26 23.9
002EEB90 2019-04-19 02:47:44 15.8 26 23.9
002EEB90 2019-04-19 02:13:56 15.7 26 24.1
002EEB90 2019-04-19 01:40:08 15.8 26 24.2
002EEB90 2019-04-19 01:06:21 15.9 26 24.4
002EEB90 2019-04-19 00:32:34 16 26 24.4
002EEB90 2019-04-18 23:58:47 16.1 26 24.4
002EEB90 2019-04-18 23:25:02 16.2 26 24.3
002EEB90 2019-04-18 22:51:15 16.2 26 24.3
002EEB90 2019-04-18 22:17:26 16.3 26 24.3
002EEB90 2019-04-18 21:43:39 16.4 26 24.3
002EEB90 2019-04-18 21:09:51 16.4 26 24.3
002EEB90 2019-04-18 20:36:03 16.4 26 24.2
002EEB90 2019-04-18 20:02:15 16.4 26 24.1
002EEB90 2019-04-18 19:28:27 16.4 26 24
002EEB90 2019-04-18 18:54:40 16.4 26 23.9
002EEB90 2019-04-18 18:20:54 16.4 26 23.8
002EEB90 2019-04-18 17:47:07 16.4 26 23.7
002EEB90 2019-04-18 17:13:18 16.4 26 23.6
002EEB90 2019-04-18 16:39:30 16.4 26 23.4
002EEB90 2019-04-18 16:05:42 16.4 26 23.4
002EEB90 2019-04-18 15:31:53 16.3 26 23.2
002EEB90 2019-04-18 14:58:06 16.2 26 23.1
002EEB90 2019-04-18 14:24:19 16.2 26 22.9
002EEB90 2019-04-18 13:50:30 16.1 26 22.7
002EEB90 2019-04-18 13:16:42 16 26 22.3
002EEB90 2019-04-18 12:42:53 16 26 22.2
002EEB90 2019-04-18 12:09:07 16 25 22.2
002EEB90 2019-04-18 11:35:19 16 25 21.9
002EEB90 2019-04-18 11:01:32 16 25 21.5
002EEB90 2019-04-18 10:27:43 16 26 21.6
002EEB90 2019-04-18 09:53:56 16 25 21.5
002EEB90 2019-04-18 09:20:09 15.8 25 21.6
002EEB90 2019-04-18 08:46:21 15.9 25 21.6
002EEB90 2019-04-18 08:12:34 16.2 25 21.5
002EEB90 2019-04-18 07:38:47 16.2 25 21.4
002EEB90 2019-04-18 07:05:01 16.2 25 21.4
002EEB90 2019-04-18 06:31:14 16.2 25 21.3
002EEB90 2019-04-18 05:57:27 16 25 21.3
002EEB90 2019-04-18 05:23:40 16 25 21.4
002EEB90 2019-04-18 04:49:52 16 25 21.4
002EEB90 2019-04-18 04:16:04 16 25 21.5
002EEB90 2019-04-18 03:42:16 16 25 21.7
002EEB90 2019-04-18 03:08:30 15.9 25 21.7
002EEB90 2019-04-18 02:34:42 15.9 25 21.6
002EEB90 2019-04-18 02:00:56 16 25 21.5
002EEB90 2019-04-18 01:27:09 16.2 25 21.4
002EEB90 2019-04-18 00:53:22 16.2 24 21.3
002EEB90 2019-04-18 00:19:35 16.4 24 21.2
002EEB90 2019-04-17 23:45:50 16.5 24 21.3
002EEB90 2019-04-17 23:12:04 16.6 24 21.2
002EEB90 2019-04-17 22:38:18 16.6 24 20.9
002EEB90 2019-04-17 22:04:31 16.6 25 20.9
002EEB90 2019-04-17 21:30:44 16.6 25 21.1
002EEB90 2019-04-17 20:56:57 16.5 24 21.2
002EEB90 2019-04-17 20:23:09 16.4 24 21
002EEB90 2019-04-17 19:49:23 16.4 24 20.8
002EEB90 2019-04-17 19:15:37 16.5 24 20.8
002EEB90 2019-04-17 18:41:49 16.4 24 20.6
002EEB90 2019-04-17 18:08:03 16.4 24 20.5
002EEB90 2019-04-17 17:34:16 16.4 24 20.4
002EEB90 2019-04-17 17:00:29 16.4 24 20.4
002EEB90 2019-04-17 16:26:41 16.4 24 20.3
002EEB90 2019-04-17 15:52:52 16.4 24 20.2
002EEB90 2019-04-17 15:19:04 16.4 24 20.5
002EEB90 2019-04-17 14:45:16 16.6 24 20.4
002EEB90 2019-04-17 14:11:28 16.6 24 20.1
002EEB90 2019-04-17 13:37:45 16.8 24 20.3
002EEB90 2019-04-17 13:03:54 17 24 20.5
002EEB90 2019-04-17 12:30:08 16.9 24 20.4
002EEB90 2019-04-17 11:56:20 16.8 24 20.5
002EEB90 2019-04-17 11:22:33 16.8 24 20.4
002EEB90 2019-04-17 10:48:44 16.8 23 20.3
002EEB90 2019-04-17 10:14:57 16.8 23 20.3
002EEB90 2019-04-17 09:41:08 16.8 23 20.2
002EEB90 2019-04-17 09:07:19 16.8 23 20.1
002EEB90 2019-04-17 08:33:32 16.9 23 19.9
002EEB90 2019-04-17 07:59:45 17 23 19.6
002EEB90 2019-04-17 07:25:57 17.2 23 19
002EEB90 2019-04-17 06:52:11 17.4 23 19.2
002EEB90 2019-04-17 06:18:23 17.5 23 19.3
002EEB90 2019-04-17 05:44:36 17.5 23 19.5
002EEB90 2019-04-17 05:10:48 17.5 23 19.3
002EEB90 2019-04-17 04:37:01 17.7 23 19.6
002EEB90 2019-04-17 04:03:13 17.7 23 19.7
002EEB90 2019-04-17 03:29:28 17.7 23 19.7
002EEB90 2019-04-17 02:55:41 17.9 23 19.6
002EEB90 2019-04-17 02:21:52 17.9 23 19.5
002EEB90 2019-04-17 01:48:05 18.1 23 19.6
002EEB90 2019-04-17 01:14:17 18.1 22 19.3
002EEB90 2019-04-17 00:40:28 18 22 19.1
002EEB90 2019-04-17 00:06:39 17.9 22 19
002EEB90 2019-04-16 23:32:51 17.9 22 18.6
002EEB90 2019-04-16 22:59:01 17.9 22 18.3
002EEB90 2019-04-16 22:25:12 18.1 22 18.5
002EEB90 2019-04-16 21:51:24 18.3 22 18.4
002EEB90 2019-04-16 21:17:36 18.6 22 18.3
002EEB90 2019-04-16 20:43:49 18.7 22 18.3
002EEB90 2019-04-16 20:10:01 18.8 22 18.3
002EEB90 2019-04-16 19:36:15 19 22 18.2
002EEB90 2019-04-16 19:02:25 19 22 18.3
002EEB90 2019-04-16 18:28:39 18.8 22 18.5
002EEB90 2019-04-16 17:54:52 18.9 21 18.7
002EEB90 2019-04-16 16:47:17 19.2 21 18.9
002EEB90 2019-04-16 16:13:30 19.4 21 18.1
002EEB90 2019-04-16 15:39:43 19.6 21 17.7
002EEB90 2019-04-16 15:05:56 19.8 21 17.3
002EEB90 2019-04-16 14:32:11 20.2 21 17.3
002EEB90 2019-04-16 13:58:21 20.9 21 16.6
002EEB90 2019-04-16 13:24:35 20.9 21 16.7
002EEB90 2019-04-16 12:50:45 20.9 21 16.3
002EEB90 2019-04-16 12:16:56 20.9 21 16.6
002EEB90 2019-04-16 11:43:08 20.9 21 16.9
002EEB90 2019-04-16 11:09:21 20.8 21 16.9
002EEB90 2019-04-16 10:35:31 20.8 21 16.7
002EEB90 2019-04-16 10:01:44 20.8 21 16.7
002EEB90 2019-04-16 09:27:55 20.7 21 17.1
002EEB90 2019-04-16 08:54:09 20.8 21 17.2
002EEB90 2019-04-16 08:20:21 20.7 21 17.6
002EEB90 2019-04-16 07:46:30 20.7 21 17.4
002EEB90 2019-04-16 07:12:43 20.7 21 17.4
002EEB90 2019-04-16 06:38:59 20.7 21 17.5
002EEB90 2019-04-16 06:05:10 20.7 21 17.5
002EEB90 2019-04-16 05:31:26 20.7 21 17.5
002EEB90 2019-04-16 04:57:36 20.8 21 17.5
002EEB90 2019-04-16 04:23:49 20.9 21 17.4
002EEB90 2019-04-16 03:50:01 20.8 21 17.5
002EEB90 2019-04-16 03:16:16 20.9 21 17.1
002EEB90 2019-04-16 02:42:25 20.9 20 17
002EEB90 2019-04-16 02:08:38 20.9 20 17.8
002EEB90 2019-04-16 01:34:51 20.9 20 18.3
002EEB90 2019-04-16 01:01:04 20.9 20 18.5
002EEB90 2019-04-16 00:27:17 20.9 20 18.9
002EEB90 2019-04-15 23:53:30 20.9 20 19.6
002EEB90 2019-04-15 23:19:43 20.9 20 19.9
002EEB90 2019-04-15 22:45:56 20.9 20 20.2
002EEB90 2019-04-15 22:12:09 20.9 20 20.6
002EEB90 2019-04-15 21:38:22 21 20 21.1
002EEB90 2019-04-15 21:04:35 20.9 20 21.3
002EEB90 2019-04-15 20:30:48 20.9 20 21.7
002EEB90 2019-04-15 19:57:01 20.9 20 22.1
002EEB90 2019-04-15 19:23:15 20.9 20 22.3
002EEB90 2019-04-15 18:49:29 20.9 20 22.4
002EEB90 2019-04-15 18:15:42 21 19 22.6
002EEB90 2019-04-15 17:41:56 21.1 19 22.9
002EEB90 2019-04-15 17:08:10 21.1 19 23.7
002EEB90 2019-04-15 16:34:27 21.1 19 23.9
002EEB90 2019-04-15 16:00:39 21.3 19 24
002EEB90 2019-04-15 15:26:51 21.3 19 24.3
002EEB90 2019-04-15 14:53:06 21.4 19 24.5
002EEB90 2019-04-15 14:19:20 21.5 19 24.8
002EEB90 2019-04-15 13:45:35 21.6 19 24.9
002EEB90 2019-04-15 13:11:50 21.9 18 25.1
002EEB90 2019-04-15 12:38:03 22.2 18 25.3
002EEB90 2019-04-15 12:04:17 21.9 16 25.3
002EEB90 2019-04-15 11:30:29 22 16 25.4
002EEB90 2019-04-15 10:56:43 21.9 17 25.5
002EEB90 2019-04-15 10:22:56 21.8 17 25.9
002EEB90 2019-04-15 09:49:09 21.8 17 25.9
002EEB90 2019-04-15 09:15:22 21.8 18 25.9
002EEB90 2019-04-15 08:41:34 21.7 17 25.9
002EEB90 2019-04-15 08:07:48 21.7 17 25.8
002EEB90 2019-04-15 07:34:03 21.5 17 25.7
002EEB90 2019-04-15 07:00:17 21.5 18 25.7
002EEB90 2019-04-15 06:26:31 21.5 18 25.7
002EEB90 2019-04-15 05:52:46 21.5 18 25.7
002EEB90 2019-04-15 05:18:58 21.5 18 25.6
002EEB90 2019-04-15 04:45:10 21.5 18 25.6
002EEB90 2019-04-15 04:11:23 21.5 18 25.9
002EEB90 2019-04-15 03:37:36 21.5 18 25.8
002EEB90 2019-04-15 03:03:50 21.5 18 25.4
002EEB90 2019-04-15 02:30:04 21.5 18 25.5
002EEB90 2019-04-15 01:56:19 21.5 18 25.5
002EEB90 2019-04-15 01:22:33 21.5 18 25.4
002EEB90 2019-04-15 00:48:48 21.5 18 25.4
002EEB90 2019-04-15 00:15:04 21.5 18 25.4
002EEB90 2019-04-14 23:41:18 21.6 18 25.3
002EEB90 2019-04-14 23:07:33 21.5 18 25.2
002EEB90 2019-04-14 22:33:48 21.6 18 25.2
002EEB90 2019-04-14 22:00:03 21.7 18 25.2
002EEB90 2019-04-14 21:26:17 21.7 19 25.1
002EEB90 2019-04-14 20:52:32 21.7 19 25.2
002EEB90 2019-04-14 20:18:46 21.7 19 24.9
002EEB90 2019-04-14 19:45:01 21.7 19 25.2
002EEB90 2019-04-14 19:11:15 21.7 19 25.2
002EEB90 2019-04-14 18:37:29 21.7 19 25.1
002EEB90 2019-04-14 18:03:43 21.7 18 25.2
002EEB90 2019-04-14 17:29:57 21.6 18 25.1
002EEB90 2019-04-14 16:56:10 21.6 18 25.1
002EEB90 2019-04-14 16:22:25 21.6 19 25.1
002EEB90 2019-04-14 15:48:39 21.6 19 25.2
002EEB90 2019-04-14 15:14:54 21.5 19 25.2
002EEB90 2019-04-14 14:41:09 21.6 19 25.3
002EEB90 2019-04-14 14:07:24 21.7 19 24.9
002EEB90 2019-04-14 13:33:39 21.7 19 25
002EEB90 2019-04-14 12:59:52 21.7 19 25.1
002EEB90 2019-04-14 12:26:06 21.6 19 25
002EEB90 2019-04-14 11:52:19 21.7 19 25
002EEB90 2019-04-14 11:18:32 21.6 19 25
002EEB90 2019-04-14 10:44:45 21.6 19 24.9
002EEB90 2019-04-14 10:10:58 21.5 19 24.9
002EEB90 2019-04-14 09:37:11 21.7 19 24.9
002EEB90 2019-04-14 09:03:23 21.6 19 25
002EEB90 2019-04-14 08:29:36 21.5 19 25
002EEB90 2019-04-14 07:55:49 21.5 19 25
002EEB90 2019-04-14 07:22:02 21.5 18 24.9
002EEB90 2019-04-14 06:48:14 21.5 18 25
002EEB90 2019-04-14 06:14:27 21.6 18 24.9
002EEB90 2019-04-14 05:40:39 21.5 18 24.5
002EEB90 2019-04-14 05:06:51 21.5 18 24.7
002EEB90 2019-04-14 04:33:04 21.6 18 24.8
002EEB90 2019-04-14 03:59:17 21.7 18 24.9
002EEB90 2019-04-14 03:25:29 21.7 18 25.1
002EEB90 2019-04-14 02:51:41 21.7 19 25.2
002EEB90 2019-04-14 02:17:54 21.7 19 25.2
002EEB90 2019-04-14 01:44:07 21.7 19 25.3
002EEB90 2019-04-14 01:10:18 21.7 19 25.3
002EEB90 2019-04-14 00:36:33 21.8 19 25.2
002EEB90 2019-04-14 00:02:45 21.8 18 25.6
002EEB90 2019-04-13 23:28:56 21.7 18 25.6
002EEB90 2019-04-13 22:55:09 21.7 18 25.9
002EEB90 2019-04-13 22:21:20 21.8 18 25.9
002EEB90 2019-04-13 21:47:32 21.8 18 26.2
002EEB90 2019-04-13 21:13:43 21.8 18 26.3
002EEB90 2019-04-13 20:39:53 21.9 18 26.3
002EEB90 2019-04-13 20:06:05 21.9 18 26.3
002EEB90 2019-04-13 19:32:16 21.9 18 26.4
002EEB90 2019-04-13 18:58:26 22 18 26.3
002EEB90 2019-04-13 18:24:37 21.9 19 26.6
002EEB90 2019-04-13 17:50:48 21.9 19 26.6
002EEB90 2019-04-13 17:17:00 21.9 19 26.6
002EEB90 2019-04-13 16:43:12 21.9 19 26.6
002EEB90 2019-04-13 16:09:25 22 19 26.5
002EEB90 2019-04-13 15:35:37 22 19 26.6
002EEB90 2019-04-13 15:01:48 22 19 26.5
002EEB90 2019-04-13 14:28:02 22.1 19 26.6
002EEB90 2019-04-13 13:54:16 22.1 19 26.5
002EEB90 2019-04-13 13:20:28 22.1 19 26.6
002EEB90 2019-04-13 12:46:40 22.2 19 26.5
002EEB90 2019-04-13 12:12:52 22.2 19 26.5
002EEB90 2019-04-13 11:39:04 22.1 19 26.4
002EEB90 2019-04-13 11:05:15 22.1 19 26.7
002EEB90 2019-04-13 10:31:29 22.1 19 26.7
002EEB90 2019-04-13 09:57:41 22.1 19 26.4
002EEB90 2019-04-13 09:23:53 22.1 19 26.3
002EEB90 2019-04-13 08:50:05 22 19 26.1
002EEB90 2019-04-13 08:16:17 22 19 26.1
002EEB90 2019-04-13 07:42:29 22.1 18 25.9
002EEB90 2019-04-13 07:08:41 22 18 25.8
002EEB90 2019-04-13 06:34:51 22.1 18 25.8
002EEB90 2019-04-13 06:01:03 22.1 19 25.8
002EEB90 2019-04-13 05:27:16 22.1 19 25.6
002EEB90 2019-04-13 04:53:28 22.1 19 25.6
002EEB90 2019-04-13 04:19:40 22.1 19 25.2
002EEB90 2019-04-13 03:45:53 22.2 18 25.6
002EEB90 2019-04-13 03:12:06 22.2 19 25.6
002EEB90 2019-04-13 02:38:18 22.1 19 25.4
002EEB90 2019-04-13 02:04:30 22.2 19 25.5
002EEB90 2019-04-13 01:30:43 22.2 19 25.4
002EEB90 2019-04-13 00:56:57 22.2 19 25.5
002EEB90 2019-04-13 00:23:11 22.3 19 25.4
002EEB90 2019-04-12 23:49:24 22.4 19 25.4
002EEB90 2019-04-12 23:15:40 22.4 19 25.2
002EEB90 2019-04-12 22:41:54 22.3 20 25.3
002EEB90 2019-04-12 22:08:08 22.4 20 25.3
002EEB90 2019-04-12 21:34:23 22.5 20 25.4
002EEB90 2019-04-12 21:00:36 22.6 20 24.8
002EEB90 2019-04-12 20:26:51 22.6 19 24.7
002EEB90 2019-04-12 19:53:03 22.6 19 24.8
002EEB90 2019-04-12 19:19:17 22.6 19 25
002EEB90 2019-04-12 18:45:31 22.6 18 24.9
002EEB90 2019-04-12 18:11:45 22.6 17 24.9
002EEB90 2019-04-12 17:38:01 22.8 17 24.6
002EEB90 2019-04-12 17:04:14 22.8 18 24.8
002EEB90 2019-04-12 16:30:27 22.8 18 24.8
002EEB90 2019-04-12 15:56:39 22.6 19 24.5
002EEB90 2019-04-12 15:22:52 22.3 19 25
002EEB90 2019-04-12 14:49:04 22.1 19 25.9
002EEB90 2019-04-12 14:15:15 21.9 20 26
002EEB90 2019-04-12 13:41:27 21.4 20 19.8
002EEB90 2019-04-12 13:07:39 20.7 22 15.5